{"data":{"norad_id":63934,"intl_designator":"2025-098J","name":"STARLINK-33895","alt_names":[],"object_type":"PAYLOAD","status":"ACTIVE","operator":null,"country":"US","launch_date":"2025-05-13","launch_site_code":"AFWTR","launch_vehicle":null,"mission":null,"orbit_class":"UNKNOWN","rcs_meters":null,"size_class":null,"mass_kg":null,"dimensions":null,"purposes":["comms"],"wikipedia_slug":null,"has_3d_model":false,"image_url":null,"decayed_at":null,"tle_current":{"epoch":"2026-05-25T02:59:46.353120Z","epoch_age_seconds":54484,"freshness":"FRESH","line1":"1 63934U 25098J   26145.12484205  .00004221  00000+0  36125-3 0  9991","line2":"2 63934  70.0008  81.6584 0002971 268.7999  91.2820 14.98342171 58020","mean_motion":14.98342171,"eccentricity":0.0002971,"inclination_deg":70.0008,"raan_deg":81.6584,"arg_perigee_deg":268.7999,"mean_anomaly_deg":91.282,"bstar":0.00036125,"rev_number":5802,"period_min":96.106218450685,"perigee_km":569.9533622599,"apogee_km":574.08314451146,"semimajor_km":6950.1552533857,"source":"CELESTRAK","updated_at":"2026-05-25T13:38:20.184104Z"}}}